When you browse on this site, cookies collect data to enhance your experience and personalize the content and advertising you see.
Visit our Privacy Policy to learn more. By continuing to use the site, you agree to this use of cookies and data.

Stündliche Wetter Genf

Heute, 29 September, Dienstag

Zeit Temperatur Niederschläge Wind Luftdruck Luftfeuchtigkeit
00:00 +10°C° 0.4 mm 2 m/S 727 mmHg 98%
01:00 +11°C° 0.2 mm 1 m/S 727 mmHg 97%
02:00 +11°C° 0.2 mm 1 m/S 727 mmHg 97%
03:00 +11°C° 0.2 mm 1 m/S 727 mmHg 97%
04:00 +11°C° 0.1 mm 1 m/S 727 mmHg 96%
05:00 +11°C° 0.1 mm 1 m/S 727 mmHg 96%
06:00 +11°C° 0.1 mm 1 m/S 727 mmHg 95%
07:00 +12°C° 0 mm 1 m/S 728 mmHg 91%
08:00 +14°C° 0 mm 1 m/S 728 mmHg 86%
09:00 +15°C° 0 mm 1 m/S 728 mmHg 82%
10:00 +16°C° 0 mm 1 m/S 728 mmHg 77%
11:00 +18°C° 0 mm 1 m/S 728 mmHg 72%
12:00 +19°C° 0 mm 1 m/S 728 mmHg 67%
13:00 +19°C° 0 mm 1 m/S 728 mmHg 68%
14:00 +19°C° 0 mm 1 m/S 727 mmHg 69%
15:00 +19°C° 0 mm 1 m/S 727 mmHg 70%
16:00 +16°C° 0 mm 1 m/S 727 mmHg 77%
17:00 +14°C° 0 mm 1 m/S 727 mmHg 84%
18:00 +12°C° 0 mm 0 m/S 727 mmHg 91%
19:00 +13°C° 0 mm 1 m/S 727 mmHg 91%
20:00 +12°C° 0 mm 1 m/S 727 mmHg 92%
21:00 +12°C° 0 mm 1 m/S 727 mmHg 92%
22:00 +12°C° 0 mm 1 m/S 727 mmHg 93%
23:00 +11°C° 0 mm 0 m/S 727 mmHg 93%

Morgen, 30 September, Mittwoch

Zeit Temperatur Niederschläge Wind Luftdruck Luftfeuchtigkeit
00:00 +11°C° 0 mm 0 m/S 727 mmHg 93%
01:00 +10°C° 0 mm 0 m/S 726 mmHg 93%
02:00 +10°C° 0 mm 0 m/S 726 mmHg 94%
03:00 +10°C° 0 mm 0 m/S 726 mmHg 94%
04:00 +10°C° 0 mm 0 m/S 725 mmHg 94%
05:00 +10°C° 0 mm 0 m/S 725 mmHg 94%
06:00 +9°C° 0 mm 0 m/S 725 mmHg 94%
07:00 +12°C° 0 mm 0 m/S 725 mmHg 86%
08:00 +14°C° 0 mm 0 m/S 725 mmHg 79%
09:00 +17°C° 0 mm 0 m/S 725 mmHg 72%
10:00 +20°C° 0 mm 1 m/S 725 mmHg 68%
11:00 +21°C° 0 mm 1 m/S 724 mmHg 64%
12:00 +22°C° 0 mm 1 m/S 724 mmHg 60%
13:00 +22°C° 0 mm 1 m/S 723 mmHg 61%
14:00 +22°C° 0 mm 1 m/S 723 mmHg 62%
15:00 +22°C° 0 mm 1 m/S 723 mmHg 63%
16:00 +20°C° 0 mm 1 m/S 723 mmHg 71%
17:00 +16°C° 0 mm 1 m/S 722 mmHg 79%
18:00 +14°C° 0 mm 1 m/S 722 mmHg 87%
19:00 +14°C° 0 mm 1 m/S 722 mmHg 86%
20:00 +14°C° 0 mm 1 m/S 722 mmHg 85%
21:00 +14°C° 0 mm 1 m/S 723 mmHg 84%
22:00 +13°C° 0 mm 1 m/S 722 mmHg 84%
23:00 +13°C° 0 mm 1 m/S 722 mmHg 85%

übermorgen, 1 Oktober, Donnerstag

Zeit Temperatur Niederschläge Wind Luftdruck Luftfeuchtigkeit
00:00 +13°C° 0 mm 1 m/S 722 mmHg 85%
01:00 +13°C° 0 mm 1 m/S 721 mmHg 85%
02:00 +13°C° 0 mm 1 m/S 721 mmHg 85%
03:00 +12°C° 0 mm 1 m/S 720 mmHg 85%
04:00 +12°C° 0 mm 1 m/S 720 mmHg 85%
05:00 +12°C° 0 mm 1 m/S 719 mmHg 84%
06:00 +12°C° 0 mm 1 m/S 719 mmHg 84%
07:00 +14°C° 0 mm 1 m/S 719 mmHg 77%
08:00 +18°C° 0 mm 1 m/S 719 mmHg 70%
09:00 +20°C° 0 mm 1 m/S 719 mmHg 63%
10:00 +18°C° 0 mm 2 m/S 719 mmHg 64%
11:00 +18°C° 0 mm 2 m/S 719 mmHg 65%
12:00 +18°C° 0 mm 3 m/S 719 mmHg 66%
13:00 +17°C° 0.1 mm 2 m/S 718 mmHg 72%
14:00 +16°C° 0.1 mm 2 m/S 718 mmHg 78%
15:00 +16°C° 0.1 mm 1 m/S 718 mmHg 84%
16:00 +15°C° 0.2 mm 1 m/S 718 mmHg 87%
17:00 +14°C° 0.2 mm 1 m/S 718 mmHg 89%
18:00 +14°C° 0.2 mm 1 m/S 718 mmHg 92%
19:00 +14°C° 0.2 mm 1 m/S 718 mmHg 93%
20:00 +13°C° 0.2 mm 1 m/S 718 mmHg 94%
21:00 +13°C° 0.2 mm 1 m/S 717 mmHg 95%
22:00 +12°C° 0 mm 0 m/S 717 mmHg 94%
23:00 +11°C° 0 mm 0 m/S 716 mmHg 94%

2 Oktober, Freitag

Zeit Temperatur Niederschläge Wind Luftdruck Luftfeuchtigkeit
00:00 +11°C° 0 mm 0 m/S 715 mmHg 94%
01:00 +11°C° 0 mm 0 m/S 715 mmHg 94%
02:00 +12°C° 0 mm 1 m/S 714 mmHg 94%
03:00 +12°C° 0 mm 1 m/S 713 mmHg 94%
04:00 +12°C° 0.1 mm 1 m/S 713 mmHg 94%
05:00 +13°C° 0.1 mm 1 m/S 712 mmHg 95%
06:00 +13°C° 0.1 mm 1 m/S 711 mmHg 96%
07:00 +13°C° 0.1 mm 1 m/S 711 mmHg 94%
08:00 +14°C° 0.1 mm 1 m/S 711 mmHg 93%
09:00 +15°C° 0.1 mm 1 m/S 711 mmHg 92%
10:00 +16°C° 0 mm 1 m/S 710 mmHg 88%
11:00 +16°C° 0 mm 2 m/S 710 mmHg 85%
12:00 +17°C° 0 mm 2 m/S 709 mmHg 82%
13:00 +17°C° 0.2 mm 2 m/S 709 mmHg 83%
14:00 +17°C° 0.2 mm 2 m/S 708 mmHg 84%
15:00 +16°C° 0.2 mm 2 m/S 708 mmHg 85%
16:00 +16°C° 0.1 mm 2 m/S 708 mmHg 87%
17:00 +15°C° 0.1 mm 1 m/S 708 mmHg 90%
18:00 +14°C° 0.1 mm 1 m/S 708 mmHg 92%
19:00 +14°C° 0.3 mm 1 m/S 708 mmHg 92%
20:00 +14°C° 0.3 mm 1 m/S 708 mmHg 93%
21:00 +14°C° 0.3 mm 1 m/S 708 mmHg 93%
22:00 +13°C° 0.8 mm 1 m/S 708 mmHg 94%
23:00 +12°C° 0.8 mm 2 m/S 708 mmHg 95%

3 Oktober, Samstag

Zeit Temperatur Niederschläge Wind Luftdruck Luftfeuchtigkeit
00:00 +10°C° 0.8 mm 2 m/S 708 mmHg 96%
01:00 +10°C° 1.8 mm 2 m/S 708 mmHg 97%
02:00 +10°C° 1.8 mm 2 m/S 708 mmHg 97%
03:00 +9°C° 1.8 mm 2 m/S 708 mmHg 98%
04:00 +9°C° 3.7 mm 2 m/S 709 mmHg 97%
05:00 +10°C° 3.7 mm 1 m/S 709 mmHg 97%
06:00 +10°C° 3.7 mm 1 m/S 710 mmHg 97%
07:00 +10°C° 1.6 mm 1 m/S 711 mmHg 95%
08:00 +10°C° 1.6 mm 1 m/S 711 mmHg 94%
09:00 +11°C° 1.6 mm 1 m/S 712 mmHg 93%
10:00 +12°C° 0.2 mm 2 m/S 712 mmHg 88%
11:00 +13°C° 0.2 mm 2 m/S 712 mmHg 84%
12:00 +14°C° 0.2 mm 2 m/S 712 mmHg 79%
13:00 +13°C° 0 mm 2 m/S 712 mmHg 80%
14:00 +13°C° 0 mm 2 m/S 712 mmHg 80%
15:00 +13°C° 0 mm 2 m/S 711 mmHg 81%
16:00 +12°C° 0 mm 2 m/S 712 mmHg 85%
17:00 +10°C° 0 mm 2 m/S 712 mmHg 89%
18:00 +9°C° 0 mm 2 m/S 713 mmHg 93%
19:00 +9°C° 0 mm 2 m/S 713 mmHg 93%
20:00 +8°C° 0 mm 2 m/S 713 mmHg 92%
21:00 +8°C° 0 mm 2 m/S 713 mmHg 92%
22:00 +9°C° 0 mm 1 m/S 713 mmHg 91%
23:00 +9°C° 0 mm 1 m/S 713 mmHg 91%

4 Oktober, Sonntag

Zeit Temperatur Niederschläge Wind Luftdruck Luftfeuchtigkeit
00:00 +9°C° 0 mm 1 m/S 713 mmHg 91%
01:00 +9°C° 0 mm 1 m/S 713 mmHg 91%
02:00 +8°C° 0 mm 0 m/S 713 mmHg 91%
03:00 +8°C° 0 mm 0 m/S 713 mmHg 91%
04:00 +9°C° 0 mm 1 m/S 713 mmHg 91%
05:00 +9°C° 0 mm 1 m/S 713 mmHg 92%
06:00 +9°C° 0 mm 1 m/S 714 mmHg 92%
07:00 +9°C° 0 mm 2 m/S 714 mmHg 90%
08:00 +10°C° 0 mm 3 m/S 714 mmHg 88%
09:00 +11°C° 0 mm 4 m/S 715 mmHg 86%
10:00 +11°C° 0.4 mm 4 m/S 715 mmHg 86%
11:00 +12°C° 0.4 mm 4 m/S 715 mmHg 87%
12:00 +12°C° 0.4 mm 4 m/S 716 mmHg 87%
13:00 +12°C° 0.5 mm 4 m/S 716 mmHg 89%
14:00 +12°C° 0.5 mm 3 m/S 716 mmHg 91%
15:00 +11°C° 0.5 mm 3 m/S 716 mmHg 92%
16:00 +12°C° 0.1 mm 2 m/S 716 mmHg 93%
17:00 +10°C° 0.1 mm 2 m/S 717 mmHg 93%
18:00 +11°C° 0.1 mm 1 m/S 717 mmHg 93%
19:00 +11°C° 0.2 mm 1 m/S 717 mmHg 93%
20:00 +11°C° 0.2 mm 1 m/S 717 mmHg 93%
21:00 +11°C° 0.2 mm 1 m/S 718 mmHg 93%
22:00 +10°C° 1.4 mm 2 m/S 718 mmHg 94%
23:00 +9°C° 1.4 mm 2 m/S 718 mmHg 95%
Mehr zeigen